Location: Unspecified
(51.0000°N, 12.0000°E)
Time: 00:44:11
(UTC+02:00)

ISS - Pass Details

Date: 07 January 2018
Orbit: 402 x 407 km, 51.6° (Epoch: 27 April)

Event Time Altitude Azimuth Distance (km) Brightness Sun altitude
Exits shadow 04:40:24 10° 79° (ENE) 1,511 -0.1 -32.5°
Enters shadow 05:37:12 -67° 267° (W) 12,190 3.6 -23.5°
Maximum altitude 06:13:39 80° 4° (N) 425 -3.9 -17.9°
